Flag for Germany Weather past 2 weeks in Greifswald, Mecklenburg-Western Pomerania, Germany

Now
39 °F

Sprinkles. Overcast.


Feels Like: 32 °F
Forecast: 35 / 44 °F
Wind: 13 mph from Northwest

Location: Greifswald

Current Time: Apr 1, 2015 at 3:27:35 PM

Latest Report: Apr 1, 2015 at 3:00 PM


Visibility: 11 mi

Pressure: 29.59 "Hg

Humidity: 86%

Dew point: 36 °F

Location of GreifswaldLocation

Historic Weather in Greifswald — Graph

°F

Greifswald temperature yesterday

Maximum temperature yesterday: 47 °F (at 3:00 PM)
Minimum temperature yesterday: 33 °F (at 10:00 AM)
Average temperature yesterday: 39 °F

Past Weeks' High & Low Weather Summary

 TemperatureHumidityPressure
High60 °F (Mar 17, 4:00 PM)100% (Mar 25, 6:00 AM)30.48 "Hg (Mar 25, 6:00 AM)
Low29 °F (Mar 19, 6:00 AM)21% (Mar 18, 12:00 PM)28.85 "Hg (Mar 30, 2:00 AM)
Average42 °F74%29.89 "Hg
* Reported Mar 17 1:00 PM — Apr 1 2:00 PM, Greifswald, Weather by CustomWeather, © 2015

Note: Actual official high and low records may vary slightly from our data, if they occured in-between our weather recording intervals... More about our weather records

Advertising

Greifswald weather history for previous 24 hours

 ConditionsComfort  
Time TempWeatherWind HumidityBarometerVisibility
2:00 PM
Wed, Apr 1
41 °FSprinkles. Overcast.13 mph81%29.56 "Hg22 mi
1:00 PM42 °FSprinkles. Overcast.6 mph82%29.54 "Hg31 mi
12:00 PM38 °FSprinkles. Overcast.12 mph87%29.54 "Hg16 mi
11:00 AM43 °FPartly sunny.9 mph70%29.53 "Hg19 mi
10:00 AM42 °FOvercast.9 mph76%29.50 "Hg22 mi
9:00 AM41 °FPartly sunny.7 mph80%29.50 "Hg22 mi
8:00 AM40 °FOvercast.7 mph85%29.47 "Hg19 mi
7:00 AM38 °FPartly sunny.6 mph91%29.44 "Hg19 mi
6:00 AM36 °FLight rain. Overcast.7 mph92%29.44 "Hg9 mi
4:00 AM37 °FLight rain. Low clouds.7 mph93%29.38 "Hg11 mi
3:00 AM37 °FLight rain. Low clouds.6 mph93%29.35 "Hg9 mi
2:00 AM37 °FLight rain. Low clouds.6 mph93%29.35 "Hg8 mi
1:00 AM37 °FLight rain. Low clouds.7 mph94%29.32 "Hg11 mi
12:00 AM37 °FLight rain. Low clouds.7 mph93%29.29 "Hg5 mi
10:00 PM
Tue, Mar 31
36 °FRain. Low clouds.10 mph93%29.21 "Hg5 mi
9:00 PM39 °FRain. Low clouds.13 mph93%29.09 "Hg5 mi
8:00 PM40 °FLight rain. Overcast.12 mph88%29.00 "Hg7 mi
7:00 PM42 °FLight rain. Overcast.9 mph85%29.00 "Hg11 mi
6:00 PM44 °FLight rain. Overcast.12 mph82%28.97 "Hg16 mi
5:00 PM45 °FLight rain. Overcast.10 mph85%28.94 "Hg9 mi
4:00 PM47 °FSprinkles. Overcast.8 mph83%28.91 "Hg14 mi
3:00 PM47 °FLight rain. Overcast.9 mph82%28.91 "Hg12 mi
Weather by CustomWeather, © 2015

See weather overviewHow to use our weather pages